This demonstration page uses our WeatherBlox Daily Observations layout. Learn more.

Left ArrowRight Arrow

41.55636, -103.73856

Hourly Observations for February 7, 2020

Temp ( °F °C ) Dew Point ( °F °C ) Humidity (%) Winds ( mph kmh ) Pressure ( in mb ) Visibility ( mi km ) Precip ( " mm )
12:58 am 00:58 Mostly Cloudy 31 -0.8 24 -4.3 77 77 NNW 17 28 29.76 1008 10 16 N/A
1:58 am 01:58 Mostly Cloudy 29 -1.4 26 -3.3 87 87 NW 15 24 29.78 1008 10 16 N/A
2:58 am 02:58 Mostly Cloudy 29 -1.6 25 -4.1 83 83 NW 15 24 29.79 1009 10 16 N/A
3:58 am 03:58 Mostly Cloudy 27 -2.9 23 -5.1 85 85 NW 12 19 29.88 1012 10 16 N/A
4:58 am 04:58 Mostly Cloudy 26 -3.2 22 -5.5 84 84 NW 17 28 29.89 1012 10 16 N/A
5:58 am 05:58 Partly Cloudy 26 -3.5 21 -6.3 81 81 WNW 16 26 29.92 1013 10 16 N/A
6:58 am 06:58 Mostly Cloudy 24 -4.3 19 -7 82 82 WNW 13 20 29.95 1014 10 16 N/A
7:58 am 07:58 Mostly Cloudy 24 -4.3 19 -7.3 80 80 NW 15 24 29.96 1014 10 16 N/A
8:58 am 08:58 Mostly Cloudy 24 -4.4 18 -7.7 78 78 NW 14 22 29.85 1011 10 16 N/A
9:58 am 09:58 Mostly Cloudy 24 -4.3 18 -8 76 76 NW 10 17 29.85 1011 10 16 N/A
10:58 am 10:58 Mostly Clear 21 -6.2 16 -8.8 82 82 W 7 11 29.87 1012 10 16 N/A
11:58 am 11:58 Mostly Cloudy 19 -7.4 15 -9.7 84 84 W 7 11 29.89 1012 10 16 N/A
1:58 pm 13:58 Mostly Cloudy 21 -5.9 14 -9.8 74 74 NW 9 15 29.91 1013 10 16 N/A
2:58 pm 14:58 Partly Cloudy 22 -5.6 14 -9.9 72 72 W 5 7 29.91 1013 10 16 N/A
3:58 pm 15:58 Mostly Sunny 25 -3.8 17 -8.6 70 70 WNW 8 13 29.92 1013 10 16 N/A
4:58 pm 16:58 Sunny 27 -2.9 18 -7.7 70 70 WNW 8 13 29.95 1014 10 16 N/A
5:58 pm 17:58 Sunny 29 -1.7 19 -7.1 67 67 NNW 13 20 29.97 1015 10 16 N/A
6:58 pm 18:58 Sunny 30 -1.3 19 -7.4 64 64 NW 12 19 29.97 1015 10 16 N/A
7:58 pm 19:58 Mostly Cloudy 31 -0.7 20 -6.8 64 64 NW 10 17 29.95 1014 10 16 N/A
8:58 pm 20:58 Sunny 33 0.3 19 -7.3 57 57 NW 13 20 29.94 1014 10 16 N/A
9:58 pm 21:58 Mostly Cloudy 33 0.6 19 -7.3 56 56 NW 14 22 29.96 1015 10 16 N/A
10:58 pm 22:58 Mostly Cloudy 33 0.6 18 -7.9 53 53 NW 10 17 29.98 1015 10 16 N/A
11:58 pm 23:58 Mostly Sunny 29 -1.6 18 -7.7 64 64 NW 7 11 30.04 1017 10 16 N/A

Powered by AerisWeather